Estación municipal de Susqueda - St. Martí Sacalm (La Selva, )

Consulta los datos en tiempo real de la estación municipal de Susqueda - St. Martí Sacalm





Hora UTC 21:30
Temperatura 25.1 ºC
Humedad 47.5 %
Presión 1025.0 hPa
Pluja 0.0 mm
Velocidad viento 10.9 km/h
Dirección viento SW
Radiación solar 0.1 W/m²

Datos diarios 2026-09-06



Hora UTC (invierno +1h; verano +2h)
Temperatura (ºC) Humedad (%) Presión (hPa) Velocidad viento (km/h) Precipitación (mm) Radiación solar (W/m²)
Hora UTC Aire Humedad Presión Vel. Dir. Vel. Max Dir. Intent. máx 5 min. Rad. Sol.
00:05 24.3 49.0 1024.7 9.8 SW 9.8 SW 0.0 0.2
00:10 24.3 48.9 1024.7 9.6 SW 12.0 SW 0.0 0.1
00:15 24.3 48.9 1024.7 8.4 SW 11.3 SW 0.0 0.1
00:20 24.4 48.7 1024.7 9.2 SW 12.7 SSW 0.0 0.1
00:25 24.5 48.8 1024.6 11.6 SW 15.5 SW 0.0 0.1
00:30 24.4 49.1 1024.6 11.2 SW 14.5 SW 0.0 0.1
00:35 24.2 49.8 1024.6 9.2 SW 11.0 SW 0.0 0.1
00:40 24.1 50.1 1024.5 8.4 SW 10.3 SW 0.0 0.1
00:45 24.1 50.0 1024.5 9.9 SW 12.7 SW 0.0 0.1
00:50 24.3 49.4 1024.5 10.8 SW 13.1 SW 0.0 0.2
00:55 24.1 50.1 1024.5 10.0 SSW 12.7 SSW 0.0 0.1
01:00 23.8 51.0 1024.5 8.5 SW 11.3 SSW 0.0 0.1
01:05 23.8 51.1 1024.5 9.6 SW 12.0 SW 0.0 0.1
01:10 23.7 51.2 1024.5 9.6 SW 12.7 SW 0.0 0.1
01:15 23.9 50.8 1024.4 10.4 SW 13.8 SW 0.0 0.1
01:20 24.2 50.2 1024.4 11.1 SW 13.8 SW 0.0 0.1
01:25 24.1 50.3 1024.4 11.1 SW 14.8 SW 0.0 0.1
01:30 23.9 50.9 1024.4 10.5 SW 12.7 SW 0.0 0.1
01:35 23.8 51.2 1024.4 10.3 SW 12.7 SSW 0.0 0.1
01:40 23.7 51.5 1024.4 10.1 SW 12.7 SW 0.0 0.1
01:45 23.6 51.6 1024.4 10.2 SW 12.4 SSW 0.0 0.1
01:50 23.6 51.8 1024.4 9.5 SW 12.4 SSW 0.0 0.1
01:55 23.5 52.1 1024.4 9.3 SW 12.4 SW 0.0 0.1
02:00 23.6 51.9 1024.4 8.8 SW 11.3 SW 0.0 0.1
02:05 23.8 51.5 1024.4 8.6 SW 11.0 SW 0.0 0.1
02:10 24.0 51.0 1024.4 9.5 SW 11.7 SW 0.0 0.1
02:15 24.0 51.0 1024.4 8.7 SW 10.3 SW 0.0 0.2
02:20 24.0 51.1 1024.4 9.1 SSW 10.6 SSW 0.0 0.1
02:25 23.9 51.5 1024.3 8.6 SSW 11.0 SSW 0.0 0.1
02:30 23.8 51.8 1024.3 7.6 SSW 10.3 SSW 0.0 0.1
02:35 23.5 52.4 1024.3 6.9 SW 9.5 SW 0.0 0.1
02:40 23.5 52.4 1024.2 7.9 SW 10.6 SW 0.0 0.1
02:45 23.4 52.7 1024.2 9.5 SW 12.7 SW 0.0 0.1
02:50 23.5 52.5 1024.2 9.6 SW 11.7 SW 0.0 0.1
02:55 23.6 52.4 1024.1 9.9 SW 13.1 SW 0.0 0.1
03:00 23.5 52.6 1024.1 10.6 SW 14.1 SW 0.0 0.1
03:05 23.5 52.7 1024.1 11.9 SW 16.6 SW 0.0 0.1
03:10 23.5 52.8 1024.1 9.9 SW 13.1 SSW 0.0 0.1
03:15 23.3 53.3 1024.1 9.3 SW 12.7 SW 0.0 0.1
03:20 23.2 53.5 1024.1 8.4 SW 10.6 SW 0.0 0.1
03:25 23.3 53.2 1024.1 9.0 SW 11.3 SW 0.0 0.1
03:30 23.2 53.5 1024.1 8.9 SW 12.0 SSW 0.0 0.1
03:35 23.1 53.6 1024.1 9.2 SW 13.4 SW 0.0 0.1
03:40 23.4 52.9 1024.0 7.9 SW 12.0 SSW 0.0 0.1
03:45 23.6 52.5 1024.0 8.9 SSW 10.3 SSW 0.0 0.1
03:50 23.7 52.3 1024.0 7.3 SSW 9.5 SSW 0.0 0.1
03:55 23.6 52.4 1024.0 6.3 SW 8.5 SW 0.0 0.1
04:00 23.6 52.5 1023.9 5.3 SSW 8.1 SSW 0.0 0.1
04:05 23.5 52.8 1023.9 4.7 SSW 6.7 SSW 0.0 0.1
04:10 23.9 51.8 1023.9 4.9 SSW 7.1 SSW 0.0 0.1
04:15 24.0 51.5 1023.9 5.1 SW 7.4 SW 0.0 0.1
04:20 24.0 51.4 1023.9 6.2 SW 7.8 SSW 0.0 0.2
04:25 24.2 50.6 1023.9 6.0 SW 8.8 SW 0.0 0.1
04:30 24.4 50.0 1023.9 5.9 SW 8.8 SW 0.0 0.1
04:35 24.3 50.3 1023.9 5.5 SW 7.8 SW 0.0 0.1
04:40 24.2 50.6 1023.8 6.7 SW 8.5 SW 0.0 0.1
04:45 24.3 50.2 1023.8 6.7 SW 8.1 SW 0.0 0.1
04:50 24.5 49.5 1023.8 7.1 SW 8.5 SSW 0.0 0.2
04:55 24.6 49.4 1023.8 6.7 SSW 8.8 SW 0.0 0.2
05:00 24.5 49.6 1023.8 2.5 SW 7.8 SW 0.0 0.2
05:05 24.2 50.5 1023.9 7.6 SW 8.8 SW 0.0 0.6
05:10 24.0 51.1 1023.9 6.8 SW 8.1 SSW 0.0 1.3
05:15 23.9 51.3 1023.9 7.1 SW 8.5 SW 0.0 2.6
05:20 24.0 51.1 1023.9 7.4 SW 8.8 SW 0.0 4.7
05:25 23.9 51.4 1023.9 7.9 SW 9.2 SSW 0.0 7.7
05:30 23.9 51.5 1023.9 8.6 SW 11.0 SW 0.0 12.2
05:35 23.9 51.5 1023.9 9.3 SSW 11.0 SSW 0.0 17.9
05:40 23.9 51.7 1024.0 9.9 SW 13.8 SW 0.0 25.5
05:45 24.0 51.7 1024.0 9.1 SSW 11.3 SW 0.0 34.7
05:50 23.8 52.1 1024.0 8.8 SSW 11.3 SW 0.0 44.9
05:55 23.8 52.2 1024.0 9.6 SSW 12.4 SSW 0.0 56.1
06:00 23.9 52.2 1024.0 9.9 SSW 11.7 SSW 0.0 68.1
06:05 23.9 52.3 1024.1 8.5 SSW 11.3 SSW 0.0 81.1
06:10 24.0 52.1 1024.1 7.4 SW 9.5 SW 0.0 93.9
06:15 24.1 52.0 1024.1 8.6 SW 10.3 SW 0.0 107.6
06:20 24.1 52.0 1024.2 8.8 SW 10.6 SW 0.0 122.0
06:25 24.0 52.1 1024.3 8.7 SW 10.3 SW 0.0 136.5
06:30 24.1 52.3 1024.3 7.4 SW 9.2 SSW 0.0 151.3
06:35 24.0 52.4 1024.3 7.0 SSW 8.8 SSW 0.0 165.0
06:40 24.1 52.2 1024.4 7.5 SW 8.8 SW 0.0 180.0
06:45 24.3 51.7 1024.4 7.8 SW 9.2 SSW 0.0 196.0
06:50 24.4 51.6 1024.4 6.7 SW 8.1 SW 0.0 212.3
06:55 24.5 51.4 1024.4 6.9 SW 8.8 SW 0.0 227.6
07:00 24.7 50.6 1024.4 7.3 SW 8.8 SW 0.0 245.0
07:05 24.9 50.2 1024.4 6.7 SW 9.2 SW 0.0 262.1
07:10 25.2 49.1 1024.5 7.5 SW 10.3 WSW 0.0 279.7
07:15 25.4 48.4 1024.5 7.3 SW 9.9 WSW 0.0 295.2
07:20 25.5 48.4 1024.5 7.0 SW 10.6 SW 0.0 314.7
07:25 25.6 48.2 1024.5 6.9 SW 9.5 SW 0.0 331.8
07:30 25.7 48.2 1024.5 6.6 SW 11.7 SW 0.0 347.6
07:35 25.8 48.0 1024.6 4.8 WSW 9.2 W 0.0 364.9
07:40 26.1 47.5 1024.6 3.3 SW 7.8 SW 0.0 381.0
07:45 26.4 46.7 1024.6 0.6 WSW 3.9 W 0.0 399.0
07:50 26.4 45.8 1024.6 0.1 WSW 2.1 NNW 0.0 415.6
07:55 26.3 45.5 1024.6 0.2 SW 2.8 SSW 0.0 432.1
08:00 26.3 45.2 1024.7 1.7 NNW 5.0 NNW 0.0 450.3
08:05 26.1 45.4 1024.7 1.6 N 6.4 NE 0.0 464.2
08:10 26.4 44.9 1024.8 4.3 NE 9.2 NE 0.0 478.0
08:15 26.4 44.5 1024.8 2.8 NE 8.1 NNE 0.0 489.4
08:20 26.4 44.1 1024.8 5.4 NE 10.6 NNE 0.0 505.4
08:25 26.1 44.2 1024.8 6.1 NNE 11.7 NNE 0.0 520.2
08:30 26.0 44.2 1024.9 4.5 NNE 9.9 NNE 0.0 534.4
08:35 26.2 43.9 1024.9 4.6 NE 9.9 NE 0.0 546.0
08:40 26.5 43.1 1025.0 4.4 NNE 9.2 NNE 0.0 556.6
08:45 26.4 43.1 1025.0 3.6 NNE 9.9 NE 0.0 565.8
08:50 26.6 42.8 1025.0 3.8 NE 9.5 NE 0.0 577.7
08:55 26.8 42.1 1025.0 5.5 NNE 10.6 NE 0.0 590.5
09:00 26.8 42.4 1025.0 4.2 NE 10.3 NNE 0.0 600.9
09:05 27.1 41.9 1025.0 4.0 NNE 10.6 N 0.0 612.1
09:10 27.2 41.8 1025.1 4.7 NE 11.7 NNE 0.0 622.3
09:15 27.3 41.6 1025.1 5.6 NNE 12.7 NNE 0.0 632.4
09:20 27.1 41.8 1025.2 4.1 NNE 11.0 NE 0.0 642.7
09:25 27.4 41.7 1025.1 4.9 NE 12.4 NE 0.0 652.7
09:30 27.9 40.7 1025.1 4.0 NE 8.5 NNE 0.0 622.9
09:35 28.1 40.3 1025.1 6.8 NNE 12.4 NNE 0.0 620.1
09:40 27.6 41.2 1025.1 6.6 NNE 12.0 N 0.0 684.1
09:45 28.0 40.7 1025.1 5.6 NE 10.3 ENE 0.0 692.8
09:50 28.3 40.3 1025.0 5.1 NNE 9.9 NNE 0.0 701.8
09:55 28.5 40.1 1025.1 3.4 NE 9.2 NE 0.0 710.5
10:00 28.9 39.4 1025.0 5.1 NE 9.9 ENE 0.0 718.3
10:05 29.1 39.5 1025.0 5.1 NNE 12.0 NNE 0.0 727.1
10:10 29.2 39.4 1025.0 4.3 NE 13.1 NNE 0.0 735.2
10:15 29.7 38.6 1024.9 6.8 ENE 12.4 NE 0.0 741.1
10:20 30.1 37.7 1024.9 5.8 NNE 12.4 NNE 0.0 746.4
10:25 29.4 38.9 1024.9 5.7 NNE 13.8 N 0.0 752.7
10:30 29.5 38.7 1024.9 7.2 NNE 13.4 N 0.0 758.9
10:35 29.4 39.2 1024.9 6.2 N 13.1 NE 0.0 764.1
10:40 29.8 38.3 1024.9 5.5 NNE 13.4 NNE 0.0 769.1
10:45 29.7 38.4 1024.8 4.0 NNE 9.9 NNE 0.0 772.7
10:50 29.6 38.7 1024.8 7.4 NNE 12.7 NE 0.0 777.0
10:55 29.7 38.7 1024.7 7.4 N 13.1 NE 0.0 780.4
11:00 30.2 37.8 1024.7 5.7 NE 14.5 NE 0.0 782.7
11:05 30.3 37.4 1024.7 7.6 NNE 14.8 NNE 0.0 785.1
11:10 30.1 37.8 1024.7 7.2 NNE 15.2 NNE 0.0 788.0
11:15 30.0 37.9 1024.7 9.3 NNE 16.2 NNE 0.0 790.8
11:20 30.1 38.0 1024.6 10.0 NNE 16.2 NE 0.0 782.3
11:25 30.3 37.7 1024.6 7.4 NNE 14.5 NNE 0.0 784.4
11:30 30.7 37.0 1024.6 6.3 NNE 12.4 NNE 0.0 792.2
11:35 30.7 36.9 1024.6 4.4 NNE 9.9 N 0.0 790.2
11:40 30.7 36.8 1024.6 5.3 NNE 11.3 N 0.0 788.7
11:45 31.2 35.9 1024.6 5.3 ENE 12.0 ENE 0.0 798.3
11:50 31.6 35.2 1024.6 3.0 ENE 8.5 NE 0.0 790.1
11:55 31.8 34.7 1024.6 6.9 ESE 17.7 SE 0.0 783.6
12:00 32.4 33.8 1024.6 5.2 ESE 15.2 S 0.0 779.6
12:05 32.7 33.2 1024.7 5.1 ENE 11.3 E 0.0 774.7
12:10 32.5 33.7 1024.6 5.1 E 16.6 E 0.0 772.9
12:15 33.2 32.6 1024.6 2.3 NE 11.3 E 0.0 788.1
12:20 33.2 32.7 1024.5 4.6 NE 14.1 NNE 0.0 789.1
12:25 32.6 33.5 1024.5 2.2 N 8.5 NNE 0.0 747.9
12:30 32.9 33.3 1024.5 3.7 E 13.8 ENE 0.0 772.2
12:35 32.9 33.2 1024.5 2.8 E 7.8 N 0.0 764.4
12:40 33.1 33.2 1024.4 3.3 E 10.3 ENE 0.0 766.0
12:45 33.2 32.8 1024.4 4.5 E 14.5 E 0.0 756.6
12:50 33.4 32.6 1024.4 8.2 E 15.9 E 0.0 755.3
12:55 33.4 32.3 1024.3 11.0 SSE 23.7 S 0.0 744.3
13:00 32.5 33.6 1024.3 11.6 SE 20.8 ESE 0.0 747.2
13:05 32.5 33.7 1024.3 8.1 SE 18.4 ESE 0.0 733.4
13:10 32.7 33.7 1024.3 7.6 ESE 13.8 ENE 0.0 709.4
13:15 33.7 32.3 1024.2 6.9 E 13.8 ENE 0.0 731.4
13:20 33.9 31.8 1024.2 4.3 ESE 16.6 SE 0.0 723.4
13:25 33.7 32.3 1024.2 6.6 ESE 18.7 SSE 0.0 713.5
13:30 33.3 33.1 1024.2 4.5 S 15.5 SE 0.0 701.6
13:35 33.3 33.1 1024.1 7.7 ESE 24.7 E 0.0 687.2
13:40 33.4 33.0 1024.0 10.9 ESE 19.1 E 0.0 683.0
13:45 33.3 33.0 1024.0 7.1 SSE 14.8 SSE 0.0 681.3
13:50 33.2 33.0 1024.0 9.5 SE 21.9 ESE 0.0 674.6
13:55 33.1 33.5 1024.0 5.0 SE 13.1 SSE 0.0 667.1
14:00 33.3 33.0 1024.0 8.8 SE 20.8 SE 0.0 654.0
14:05 32.6 34.0 1024.0 8.7 SE 19.1 SE 0.0 640.6
14:10 32.9 33.7 1023.9 10.9 ESE 22.2 E 0.0 543.2
14:15 32.7 33.9 1023.9 10.5 SE 17.3 SSE 0.0 618.6
14:20 32.8 33.7 1024.0 4.4 E 15.5 ENE 0.0 606.8
14:25 32.8 34.0 1024.0 5.3 E 17.7 E 0.0 594.8
14:30 33.0 33.4 1023.9 13.7 E 29.3 E 0.0 583.8
14:35 32.6 33.6 1023.9 12.7 ENE 26.5 E 0.0 571.5
14:40 32.5 33.7 1023.9 9.6 E 16.2 ENE 0.0 557.3
14:45 32.8 33.2 1023.9 6.2 ENE 15.2 ENE 0.0 543.6
14:50 32.6 33.4 1024.0 11.1 ENE 21.5 ENE 0.0 529.8
14:55 31.9 34.0 1024.0 7.9 NE 18.4 NNE 0.0 516.9
15:00 31.7 34.5 1024.0 5.0 NE 13.8 ENE 0.0 503.8
15:05 32.1 33.9 1023.9 4.1 ENE 12.0 NE 0.0 492.7
15:10 31.9 34.0 1024.0 4.0 NNW 14.1 NW 0.0 477.7
15:15 31.4 35.0 1023.9 1.6 NNE 7.1 NNE 0.0 465.4
15:20 31.7 34.3 1023.9 4.7 NNE 19.1 NNE 0.0 453.8
15:25 31.2 35.0 1023.9 6.8 NNE 13.4 NE 0.0 439.3
15:30 30.9 35.6 1023.9 10.3 NE 18.4 ENE 0.0 424.0
15:35 30.9 35.9 1023.9 9.5 ENE 16.2 ENE 0.0 409.8
15:40 31.5 35.3 1023.9 4.4 ENE 13.8 ENE 0.0 396.6
15:45 31.8 34.8 1023.9 3.0 NNE 9.5 ESE 0.0 382.6
15:50 31.1 35.7 1023.9 7.6 NNE 13.1 NNE 0.0 368.1
15:55 30.5 37.0 1023.9 6.2 NE 13.8 NE 0.0 353.0
16:00 30.6 37.0 1023.9 7.5 NE 16.2 ENE 0.0 337.6
16:05 30.5 36.9 1024.0 5.1 ENE 14.5 ESE 0.0 321.1
16:10 30.7 36.6 1024.0 2.7 NE 7.4 NE 0.0 304.9
16:15 30.5 36.8 1024.0 7.4 NE 13.8 ENE 0.0 289.2
16:20 30.4 37.3 1024.0 7.0 NE 13.1 NE 0.0 274.4
16:25 30.3 37.3 1024.0 12.1 ENE 20.1 ENE 0.0 257.9
16:30 30.0 38.2 1024.1 8.8 NE 13.8 NE 0.0 240.8
16:35 29.7 38.7 1024.1 8.5 NE 17.7 ENE 0.0 190.5
16:40 29.4 39.0 1024.1 6.7 NNE 14.5 NE 0.0 166.2
16:45 28.7 40.4 1024.1 7.5 NNE 13.8 NNE 0.0 75.3
16:50 28.1 41.8 1024.1 6.0 NNE 9.5 NE 0.0 41.7
16:55 27.5 43.0 1024.1 6.5 NNE 12.4 NNE 0.0 31.7
17:00 27.1 43.8 1024.2 6.5 NNE 11.0 NNE 0.0 26.5
17:05 26.7 44.7 1024.2 6.6 N 10.3 N 0.0 25.1
17:10 26.4 45.3 1024.2 6.2 NNE 9.5 NNE 0.0 25.4
17:15 26.3 45.5 1024.2 4.0 NE 9.5 N 0.0 25.4
17:20 26.2 45.4 1024.3 6.6 NE 9.5 NE 0.0 25.0
17:25 26.2 45.6 1024.3 4.2 NNE 9.5 NNE 0.0 25.0
17:30 26.0 46.1 1024.3 6.4 NE 10.6 NE 0.0 24.9
17:35 26.0 46.1 1024.2 5.9 NE 9.9 NE 0.0 29.8
17:40 26.0 46.1 1024.3 4.1 NE 7.1 NE 0.0 25.4
17:45 26.0 46.0 1024.2 4.1 NNE 6.7 NNE 0.0 20.0
17:50 26.0 46.0 1024.2 5.1 NE 7.4 ENE 0.0 17.7
17:55 26.0 45.7 1024.2 8.3 ENE 11.0 ENE 0.0 15.3
18:00 25.9 45.7 1024.2 6.0 NNE 11.0 NE 0.0 12.7
18:05 25.7 46.6 1024.2 5.2 NE 9.9 NE 0.0 9.6
18:10 25.6 46.9 1024.2 5.0 NNE 8.8 NNE 0.0 7.2
18:15 25.5 47.2 1024.2 5.6 NNE 8.1 NNE 0.0 3.9
18:20 25.4 47.8 1024.2 6.8 NNE 8.8 NNE 0.0 1.6
18:25 25.3 48.3 1024.3 6.4 NNE 8.5 NNE 0.0 0.8
18:30 25.3 48.0 1024.2 5.8 NNE 8.8 NNE 0.0 0.4
18:35 25.4 47.8 1024.3 5.7 NNE 9.9 NNE 0.0 0.2
18:40 25.5 47.4 1024.3 6.4 NNE 7.8 NNE 0.0 0.1
18:45 25.7 46.8 1024.3 6.2 NNE 7.4 NNE 0.0 0.1
18:50 25.7 46.5 1024.4 3.1 NNE 7.4 NNE 0.0 0.1
18:55 25.7 46.5 1024.4 0.0 NNE 0.0 NNE 0.0 0.1
19:00 25.6 46.9 1024.5 0.0 NNE 0.0 ENE 0.0 0.1
19:05 25.5 46.9 1024.5 0.0 NNE 0.0 NW 0.0 0.1
19:10 25.9 46.4 1024.6 0.0 NNE 0.0 WNW 0.0 0.1
19:15 25.9 46.6 1024.6 0.0 NNE 0.0 WSW 0.0 0.1
19:20 26.0 46.5 1024.6 0.0 NNE 0.0 WSW 0.0 0.1
19:25 25.9 46.7 1024.7 0.0 NNE 0.0 SW 0.0 0.1
19:30 25.9 46.6 1024.9 0.0 NNE 0.0 WSW 0.0 0.1
19:35 26.0 46.6 1024.9 4.6 WSW 6.0 WSW 0.0 0.1
19:40 26.0 46.4 1024.9 3.4 SW 4.6 SW 0.0 0.1
19:45 26.0 46.4 1025.0 4.5 SSW 5.7 SSW 0.0 0.2
19:50 26.1 46.2 1025.0 4.9 SSW 6.4 SSW 0.0 0.1
19:55 26.0 46.5 1025.0 5.8 SSW 7.8 SSW 0.0 0.1
20:00 25.9 46.6 1025.0 5.9 SSW 7.4 SSW 0.0 0.1
20:05 25.7 47.0 1025.0 6.1 SSW 8.5 SSW 0.0 0.1
20:10 25.6 47.4 1025.0 7.6 SSW 13.1 SW 0.0 0.1
20:15 25.4 47.8 1025.0 9.6 SSW 12.4 SSW 0.0 0.1
20:20 25.3 48.1 1025.0 10.5 SSW 12.4 SSW 0.0 0.1
20:25 25.3 48.3 1025.0 10.5 SSW 13.8 SSW 0.0 0.1
20:30 25.2 48.5 1025.0 11.4 SSW 14.5 SSW 0.0 0.1
20:35 25.0 48.9 1025.0 9.4 SSW 13.1 SW 0.0 0.1
20:40 24.9 49.1 1025.0 10.4 SW 14.1 SW 0.0 0.1
20:45 24.9 49.1 1025.0 9.7 SSW 12.7 SSW 0.0 0.1
20:50 24.8 49.5 1025.0 9.7 SW 12.4 SW 0.0 0.1
20:55 24.9 48.9 1025.0 10.7 SW 14.8 SW 0.0 0.1
21:00 25.1 48.3 1025.0 11.6 SSW 14.8 SW 0.0 0.1
21:05 25.0 48.7 1025.0 10.8 SW 13.1 SW 0.0 0.1
21:10 24.9 48.7 1025.0 11.4 SW 14.5 SW 0.0 0.1
21:15 25.1 48.0 1025.0 12.3 SW 15.2 SW 0.0 0.1
21:20 25.0 48.1 1025.0 10.9 SW 13.4 SW 0.0 0.1
21:25 24.9 48.1 1025.0 10.2 SW 14.5 SW 0.0 0.1
21:30 25.1 47.5 1025.0 10.9 SW 13.8 SW 0.0 0.1
Máxima 33.9 53.6 1025.2 13.7 E 29.3 E 0.0 798.3
Mínima 20 31.8 1023.8
Total 0.0